Torna al catalogo

STARLINK-34770

AttivoComunicazioniVLEO
NORAD 65036·PAYLOAD·🇺🇸 United States

Lanciato Jul 30, 2025 da Cape Canaveral Space Force Station

Loading…

Prossimi Passaggi (prossime 24 ore)

TLE

AggiornatoSource: CelesTrak SupGP

Epoca: Sep 15, 2026, 02:39 UTC

1 65036C 25161X   26258.11090278  .00041549  00000+0  12278-2 0  2588
2 65036  53.1577 132.8316 0001274  84.9329 238.9972 15.34364020    12

Traccia STARLINK-34770 in tempo reale con AllMySat

Download on the App Store